| time (UTC) | temp C | wind direction | speed KPH | gust KPH | rain 1hr cm | rain 24hr cm | rain mn cm | humidity % | barometer mb |
| 20260504173646 | 28 | 210 | 1.6 | 3.2 | 0.00 | 0.00 | 0.00 | 31 | 1017.9 |
| 20260504173144 | 28 | 269 | 4.8 | 6.4 | 0.00 | 0.00 | 0.00 | 31 | 1017.8 |
| 20260504172640 | 28 | 124 | 3.2 | 6.4 | 0.00 | 0.00 | 0.00 | 32 | 1017.8 |
| 20260504172137 | 28 | 209 | 4.8 | 6.4 | 0.00 | 0.00 | 0.00 | 31 | 1017.8 |
| 20260504171633 | 28 | 84 | 0.0 | 4.8 | 0.00 | 0.00 | 0.00 | 31 | 1017.8 |
| 20260504171131 | 28 | 198 | 0.0 | 1.6 | 0.00 | 0.00 | 0.00 | 32 | 1018.0 |
| 20260504170627 | 27 | 98 | 3.2 | 4.8 | 0.00 | 0.00 | 0.00 | 33 | 1018.1 |
| 20260504170124 | 27 | 200 | 1.6 | 3.2 | 0.00 | 0.00 | 0.00 | 33 | 1018.3 |
| 20260504151010 | 25 | 61 | 0.0 | 3.2 | 0.00 | 0.00 | 0.00 | 38 | 1019.4 |
| 20260504150507 | 25 | 194 | 0.0 | 3.2 | 0.00 | 0.00 | 0.00 | 39 | 1019.2 |
| 20260504140933 | 22 | 53 | 3.2 | 4.8 | 0.00 | 0.00 | 0.00 | 46 | 1019.2 |
| 20260504140429 | 23 | 98 | 1.6 | 4.8 | 0.00 | 0.00 | 0.00 | 46 | 1019.3 |
| 20260504130354 | 20 | 187 | 3.2 | 4.8 | 0.00 | 0.00 | 0.00 | 61 | 1019.0 |
| 20260504120317 | 16 | 353 | 0.0 | 0.0 | 0.00 | 0.00 | 0.00 | 84 | 1019.0 |
| 20260504110242 | 13 | 353 | 0.0 | 0.0 | 0.00 | 0.00 | 0.00 | 91 | 1018.4 |
| 20260504100205 | 13 | 359 | 0.0 | 0.0 | 0.00 | 0.00 | 0.00 | 89 | 1017.9 |
| 20260504090128 | 13 | 359 | 0.0 | 0.0 | 0.00 | 0.00 | 0.00 | 86 | 1018.3 |
| 20260504081558 | 13 | 359 | 0.0 | 0.0 | 0.00 | 0.00 | 0.00 | 84 | 1018.3 |
| 20260504081054 | 13 | 359 | 0.0 | 0.0 | 0.00 | 0.00 | 0.00 | 84 | 1018.3 |
| 20260504080551 | 14 | 359 | 0.0 | 0.0 | 0.00 | 0.00 | 0.00 | 83 | 1018.5 |
| 20260504050403 | 15 | 13 | 0.0 | 0.0 | 0.00 | 0.00 | 0.00 | 77 | 1019.4 |
| 20260504045900 | 15 | 13 | 0.0 | 0.0 | 0.00 | 0.00 | 0.00 | 77 | 1019.4 |
| 20260504045355 | 16 | 13 | 0.0 | 0.0 | 0.00 | 0.00 | 0.00 | 77 | 1019.5 |
| 20260504044853 | 16 | 13 | 0.0 | 0.0 | 0.00 | 0.00 | 0.00 | 76 | 1019.7 |
| 20260504044350 | 16 | 13 | 0.0 | 0.0 | 0.00 | 0.00 | 0.00 | 76 | 1019.6 |
| 20260504043847 | 16 | 31 | 0.0 | 0.0 | 0.00 | 0.00 | 0.00 | 75 | 1019.7 |
| 20260504043344 | 16 | 31 | 0.0 | 0.0 | 0.00 | 0.00 | 0.00 | 76 | 1020.0 |
| 20260504042841 | 16 | 34 | 0.0 | 0.0 | 0.00 | 0.00 | 0.00 | 76 | 1019.8 |
| 20260504042337 | 16 | 34 | 0.0 | 0.0 | 0.00 | 0.00 | 0.00 | 75 | 1019.7 |
| 20260504041834 | 16 | 34 | 0.0 | 0.0 | 0.00 | 0.00 | 0.00 | 75 | 1019.7 |
| 20260504041330 | 16 | 34 | 0.0 | 0.0 | 0.00 | 0.00 | 0.00 | 74 | 1019.6 |
| 20260504040826 | 16 | 34 | 0.0 | 0.0 | 0.00 | 0.00 | 0.00 | 74 | 1019.5 |
| 20260504040324 | 16 | 34 | 0.0 | 0.0 | 0.00 | 0.00 | 0.00 | 74 | 1019.7 |
| 20260504035820 | 16 | 34 | 0.0 | 0.0 | 0.00 | 0.00 | 0.00 | 73 | 1019.7 |
| 20260504035318 | 17 | 34 | 0.0 | 0.0 | 0.00 | 0.00 | 0.00 | 72 | 1019.9 |
| 20260504034815 | 17 | 34 | 0.0 | 0.0 | 0.00 | 0.00 | 0.00 | 72 | 1019.5 |
| 20260504034312 | 17 | 34 | 0.0 | 0.0 | 0.00 | 0.00 | 0.00 | 71 | 1019.8 |
| 20260504033809 | 17 | 35 | 0.0 | 0.0 | 0.00 | 0.00 | 0.00 | 71 | 1019.9 |
| 20260504033307 | 17 | 35 | 0.0 | 0.0 | 0.00 | 0.00 | 0.00 | 70 | 1019.7 |
| 20260504032803 | 17 | 35 | 0.0 | 0.0 | 0.00 | 0.00 | 0.00 | 70 | 1019.7 |
| 20260504032300 | 17 | 35 | 0.0 | 0.0 | 0.00 | 0.00 | 0.00 | 69 | 1019.6 |
| 20260504031757 | 17 | 36 | 0.0 | 0.0 | 0.00 | 0.00 | 0.00 | 68 | 1019.5 |
| 20260504031255 | 18 | 36 | 0.0 | 0.0 | 0.00 | 0.00 | 0.00 | 68 | 1019.7 |
| 20260504030750 | 18 | 38 | 0.0 | 0.0 | 0.00 | 0.00 | 0.00 | 67 | 1019.4 |
| 20260504030248 | 18 | 38 | 0.0 | 0.0 | 0.00 | 0.00 | 0.00 | 66 | 1019.6 |
| 20260504025744 | 18 | 38 | 0.0 | 0.0 | 0.00 | 0.00 | 0.00 | 66 | 1019.4 |
| 20260504025241 | 18 | 102 | 0.0 | 0.0 | 0.00 | 0.00 | 0.00 | 66 | 1019.4 |
| 20260504024738 | 18 | 50 | 0.0 | 0.0 | 0.00 | 0.00 | 0.00 | 65 | 1019.2 |
| 20260504024234 | 18 | 100 | 0.0 | 0.0 | 0.00 | 0.00 | 0.00 | 65 | 1019.4 |
| 20260504023731 | 18 | 176 | 0.0 | 0.0 | 0.00 | 0.00 | 0.00 | 64 | 1019.3 |
| 20260504023227 | 18 | 145 | 0.0 | 1.6 | 0.00 | 0.00 | 0.00 | 64 | 1019.3 |
| 20260504022724 | 18 | 50 | 0.0 | 0.0 | 0.00 | 0.00 | 0.00 | 64 | 1019.3 |
| 20260504022220 | 18 | 104 | 0.0 | 0.0 | 0.00 | 0.00 | 0.00 | 63 | 1019.1 |
| 20260504021718 | 18 | 320 | 0.0 | 0.0 | 0.00 | 0.00 | 0.00 | 63 | 1019.2 |
| 20260504021214 | 19 | 320 | 0.0 | 0.0 | 0.00 | 0.00 | 0.00 | 62 | 1019.0 |
| 20260504020711 | 19 | 320 | 0.0 | 0.0 | 0.00 | 0.00 | 0.00 | 62 | 1018.9 |
| 20260504020207 | 19 | 320 | 0.0 | 0.0 | 0.00 | 0.00 | 0.00 | 61 | 1018.9 |
| 20260504015704 | 19 | 87 | 0.0 | 0.0 | 0.00 | 0.00 | 0.00 | 61 | 1019.0 |
| 20260504015200 | 19 | 40 | 0.0 | 0.0 | 0.00 | 0.00 | 0.00 | 61 | 1019.0 |
| 20260504014656 | 19 | 307 | 0.0 | 0.0 | 0.00 | 0.00 | 0.00 | 61 | 1018.6 |
| 20260504014153 | 20 | 307 | 0.0 | 0.0 | 0.00 | 0.00 | 0.00 | 61 | 1018.1 |
| 20260504013651 | 20 | 110 | 0.0 | 0.0 | 0.00 | 0.00 | 0.00 | 60 | 1018.3 |
| 20260504013148 | 20 | 7 | 0.0 | 0.0 | 0.00 | 0.00 | 0.00 | 60 | 1018.5 |
| 20260504012645 | 20 | 356 | 0.0 | 0.0 | 0.00 | 0.00 | 0.00 | 60 | 1018.0 |
| 20260504012143 | 20 | 155 | 0.0 | 0.0 | 0.00 | 0.00 | 0.00 | 59 | 1017.9 |
| 20260504011639 | 20 | 61 | 0.0 | 1.6 | 0.00 | 0.00 | 0.00 | 59 | 1017.7 |
| 20260504011136 | 20 | 111 | 0.0 | 0.0 | 0.00 | 0.00 | 0.00 | 59 | 1017.7 |
| 20260504010632 | 20 | 141 | 0.0 | 1.6 | 0.00 | 0.00 | 0.00 | 58 | 1017.5 |
| 20260504010127 | 20 | 105 | 0.0 | 0.0 | 0.00 | 0.00 | 0.00 | 58 | 1017.6 |
| 20260504005625 | 20 | 73 | 0.0 | 0.0 | 0.00 | 0.00 | 0.00 | 58 | 1017.6 |
| 20260504005122 | 21 | 124 | 0.0 | 0.0 | 0.00 | 0.00 | 0.00 | 57 | 1017.6 |
| 20260504004620 | 21 | 124 | 0.0 | 1.6 | 0.00 | 0.00 | 0.00 | 57 | 1017.7 |
| 20260504004117 | 21 | 93 | 0.0 | 1.6 | 0.00 | 0.00 | 0.00 | 57 | 1017.7 |
| 20260504003613 | 21 | 105 | 0.0 | 0.0 | 0.00 | 0.00 | 0.00 | 56 | 1017.7 |
| 20260504003109 | 21 | 169 | 0.0 | 0.0 | 0.00 | 0.00 | 0.00 | 56 | 1017.5 |
| 20260504002606 | 21 | 88 | 0.0 | 0.0 | 0.00 | 0.00 | 0.00 | 55 | 1017.4 |
| 20260504002104 | 21 | 41 | 0.0 | 0.0 | 0.00 | 0.00 | 0.00 | 55 | 1017.5 |
| 20260504001601 | 21 | 79 | 0.0 | 0.0 | 0.00 | 0.00 | 0.00 | 54 | 1017.5 |
| 20260504001057 | 22 | 64 | 0.0 | 0.0 | 0.00 | 0.00 | 0.00 | 54 | 1017.2 |
| 20260504000555 | 22 | 68 | 0.0 | 0.0 | 0.00 | 0.00 | 0.00 | 53 | 1017.2 |
| 20260504000052 | 22 | 62 | 0.0 | 1.6 | 0.00 | 0.00 | 0.00 | 52 | 1017.1 |
| 20260503235550 | 22 | 29 | 0.0 | 1.6 | 0.00 | 0.00 | 0.00 | 52 | 1017.2 |
| 20260503235047 | 22 | 109 | 1.6 | 3.2 | 0.00 | 0.00 | 0.00 | 51 | 1017.3 |
| 20260503234544 | 22 | 104 | 0.0 | 1.6 | 0.00 | 0.00 | 0.00 | 51 | 1017.3 |
| 20260503234043 | 22 | 121 | 0.0 | 1.6 | 0.00 | 0.00 | 0.00 | 50 | 1017.2 |
| 20260503233538 | 23 | 125 | 0.0 | 3.2 | 0.00 | 0.00 | 0.00 | 50 | 1017.2 |
| 20260503233035 | 23 | 144 | 1.6 | 3.2 | 0.00 | 0.00 | 0.00 | 49 | 1017.0 |
| 20260503232532 | 23 | 64 | 0.0 | 1.6 | 0.00 | 0.00 | 0.00 | 49 | 1017.1 |
| 20260503232029 | 23 | 80 | 1.6 | 3.2 | 0.00 | 0.00 | 0.00 | 48 | 1017.1 |
| 20260503231527 | 23 | 103 | 4.8 | 6.4 | 0.00 | 0.00 | 0.00 | 47 | 1017.2 |
| 20260503231024 | 24 | 89 | 1.6 | 1.6 | 0.00 | 0.00 | 0.00 | 47 | 1017.3 |
| 20260503230520 | 24 | 95 | 4.8 | 9.7 | 0.00 | 0.00 | 0.00 | 45 | 1017.2 |
| 20260503230018 | 24 | 65 | 1.6 | 4.8 | 0.00 | 0.00 | 0.00 | 45 | 1017.0 |
| 20260503225514 | 25 | 95 | 0.0 | 6.4 | 0.00 | 0.00 | 0.00 | 44 | 1016.9 |
| 20260503225009 | 25 | 105 | 1.6 | 1.6 | 0.00 | 0.00 | 0.00 | 45 | 1016.8 |
| 20260503224508 | 25 | 190 | 0.0 | 4.8 | 0.00 | 0.00 | 0.00 | 44 | 1016.8 |
| 20260503224005 | 25 | 104 | 3.2 | 4.8 | 0.00 | 0.00 | 0.00 | 42 | 1016.6 |
| 20260503223503 | 25 | 48 | 0.0 | 1.6 | 0.00 | 0.00 | 0.00 | 39 | 1016.5 |
| 20260503222958 | 26 | 5 | 0.0 | 1.6 | 0.00 | 0.00 | 0.00 | 37 | 1016.7 |
| 20260503222457 | 26 | 69 | 0.0 | 0.0 | 0.00 | 0.00 | 0.00 | 38 | 1016.8 |
| 20260503221954 | 26 | 190 | 0.0 | 3.2 | 0.00 | 0.00 | 0.00 | 38 | 1016.6 |
| 20260503221452 | 26 | 295 | 0.0 | 1.6 | 0.00 | 0.00 | 0.00 | 37 | 1016.6 |
| 20260503220949 | 26 | 165 | 0.0 | 3.2 | 0.00 | 0.00 | 0.00 | 37 | 1016.7 |
| 20260503220445 | 26 | 106 | 0.0 | 0.0 | 0.00 | 0.00 | 0.00 | 37 | 1016.8 |
| 20260503215942 | 26 | 80 | 1.6 | 3.2 | 0.00 | 0.00 | 0.00 | 37 | 1016.7 |
| 20260503215439 | 26 | 303 | 1.6 | 1.6 | 0.00 | 0.00 | 0.00 | 37 | 1016.8 |
| 20260503214937 | 26 | 119 | 0.0 | 1.6 | 0.00 | 0.00 | 0.00 | 36 | 1016.7 |
| 20260503214435 | 26 | 41 | 0.0 | 1.6 | 0.00 | 0.00 | 0.00 | 35 | 1016.9 |
| 20260503213932 | 26 | 295 | 0.0 | 0.0 | 0.00 | 0.00 | 0.00 | 35 | 1016.8 |
| 20260503213430 | 26 | 27 | 0.0 | 1.6 | 0.00 | 0.00 | 0.00 | 35 | 1016.8 |
| 20260503212926 | 26 | 106 | 0.0 | 1.6 | 0.00 | 0.00 | 0.00 | 35 | 1016.7 |
| 20260503212423 | 26 | 349 | 0.0 | 4.8 | 0.00 | 0.00 | 0.00 | 37 | 1016.7 |
| 20260503211921 | 26 | 3 | 0.0 | 3.2 | 0.00 | 0.00 | 0.00 | 35 | 1016.8 |
| 20260503211417 | 26 | 250 | 3.2 | 4.8 | 0.00 | 0.00 | 0.00 | 35 | 1016.8 |
| 20260503210913 | 26 | 50 | 1.6 | 1.6 | 0.00 | 0.00 | 0.00 | 37 | 1016.9 |
| 20260503210410 | 26 | 54 | 0.0 | 1.6 | 0.00 | 0.00 | 0.00 | 35 | 1016.7 |
| 20260503205910 | 26 | 22 | 1.6 | 3.2 | 0.00 | 0.00 | 0.00 | 35 | 1016.8 |
| 20260503205408 | 27 | 344 | 1.6 | 4.8 | 0.00 | 0.00 | 0.00 | 35 | 1016.7 |
| 20260503204904 | 27 | 2 | 3.2 | 3.2 | 0.00 | 0.00 | 0.00 | 35 | 1016.8 |
| 20260503204401 | 27 | 20 | 1.6 | 1.6 | 0.00 | 0.00 | 0.00 | 35 | 1016.9 |
| 20260503203858 | 27 | 290 | 3.2 | 3.2 | 0.00 | 0.00 | 0.00 | 35 | 1016.9 |
| 20260503203355 | 27 | 351 | 3.2 | 4.8 | 0.00 | 0.00 | 0.00 | 33 | 1017.1 |
| 20260503202852 | 26 | 34 | 1.6 | 3.2 | 0.00 | 0.00 | 0.00 | 35 | 1017.1 |
| 20260503202350 | 26 | 194 | 0.0 | 1.6 | 0.00 | 0.00 | 0.00 | 35 | 1017.2 |
| 20260503201849 | 27 | 314 | 3.2 | 4.8 | 0.00 | 0.00 | 0.00 | 34 | 1017.3 |
| 20260503201345 | 27 | 334 | 3.2 | 3.2 | 0.00 | 0.00 | 0.00 | 34 | 1017.5 |
| 20260503200843 | 27 | 260 | 1.6 | 1.6 | 0.00 | 0.00 | 0.00 | 34 | 1017.3 |
| 20260503200338 | 27 | 343 | 1.6 | 4.8 | 0.00 | 0.00 | 0.00 | 34 | 1017.4 |
| 20260503195836 | 27 | 30 | 0.0 | 0.0 | 0.00 | 0.00 | 0.00 | 34 | 1017.7 |
| 20260503195332 | 26 | 324 | 1.6 | 3.2 | 0.00 | 0.00 | 0.00 | 34 | 1017.5 |
| 20260503194830 | 26 | 34 | 0.0 | 1.6 | 0.00 | 0.00 | 0.00 | 35 | 1017.5 |
| 20260503194325 | 26 | 25 | 1.6 | 1.6 | 0.00 | 0.00 | 0.00 | 34 | 1017.9 |
| 20260503193822 | 26 | 251 | 1.6 | 3.2 | 0.00 | 0.00 | 0.00 | 35 | 1017.6 |
| 20260503193318 | 26 | 33 | 0.0 | 3.2 | 0.00 | 0.00 | 0.00 | 35 | 1017.9 |
| 20260503192814 | 27 | 77 | 0.0 | 1.6 | 0.00 | 0.00 | 0.00 | 35 | 1018.0 |
| 20260503192309 | 26 | 266 | 0.0 | 1.6 | 0.00 | 0.00 | 0.00 | 36 | 1017.9 |
| 20260503191806 | 26 | 358 | 3.2 | 3.2 | 0.00 | 0.00 | 0.00 | 35 | 1018.0 |
| 20260503191303 | 26 | 20 | 1.6 | 6.4 | 0.00 | 0.00 | 0.00 | 36 | 1018.3 |
| 20260503190800 | 26 | 145 | 3.2 | 6.4 | 0.00 | 0.00 | 0.00 | 37 | 1018.5 |
| 20260503190257 | 27 | 93 | 6.4 | 6.4 | 0.00 | 0.00 | 0.00 | 34 | 1018.4 |
| 20260503185754 | 26 | 321 | 0.0 | 1.6 | 0.00 | 0.00 | 0.00 | 36 | 1018.7 |
| 20260503185249 | 26 | 205 | 1.6 | 6.4 | 0.00 | 0.00 | 0.00 | 38 | 1018.7 |
| 20260503184744 | 26 | 296 | 0.0 | 1.6 | 0.00 | 0.00 | 0.00 | 37 | 1018.9 |
| 20260503184241 | 26 | 297 | 0.0 | 1.6 | 0.00 | 0.00 | 0.00 | 39 | 1018.8 |
| 20260503183737 | 26 | 292 | 1.6 | 4.8 | 0.00 | 0.00 | 0.00 | 39 | 1019.1 |
| 20260503183235 | 26 | 279 | 3.2 | 4.8 | 0.00 | 0.00 | 0.00 | 38 | 1019.1 |
| 20260503182732 | 26 | 292 | 0.0 | 3.2 | 0.00 | 0.00 | 0.00 | 38 | 1019.0 |
| 20260503182232 | 26 | 96 | 1.6 | 1.6 | 0.00 | 0.00 | 0.00 | 38 | 1019.0 |
| 20260503181728 | 26 | 244 | 1.6 | 4.8 | 0.00 | 0.00 | 0.00 | 39 | 1019.0 |
| 20260503181225 | 26 | 119 | 1.6 | 1.6 | 0.00 | 0.00 | 0.00 | 38 | 1019.1 |
| 20260503180721 | 25 | 95 | 1.6 | 4.8 | 0.00 | 0.00 | 0.00 | 38 | 1019.3 |
| 20260503180220 | 26 | 95 | 1.6 | 9.7 | 0.00 | 0.00 | 0.00 | 39 | 1019.2 |
| 20260503175715 | 26 | 38 | 0.0 | 3.2 | 0.00 | 0.00 | 0.00 | 39 | 1019.2 |
| 20260503175214 | 26 | 20 | 0.0 | 4.8 | 0.00 | 0.00 | 0.00 | 40 | 1019.2 |
| 20260503174709 | 26 | 114 | 1.6 | 3.2 | 0.00 | 0.00 | 0.00 | 39 | 1019.2 |
| 20260503174207 | 25 | 172 | 3.2 | 3.2 | 0.00 | 0.00 | 0.00 | 40 | 1019.2 |